Time,TemperatureF,DewpointF,PressureIn,WindDirection,WindDirectionDegrees,WindSpeedMPH,WindSpeedGustMPH,Humidity,HourlyPrecipIn,Conditions,Clouds,dailyrainin,SolarRadiationWatts/m^2,SoftwareType,DateUTC
2013-08-18 00:42:00,72.0,40.0,-100.00,SSW,208,7.0,10.0,31,0.00,,,0.00,1.000000,,2013-08-18 07:42:00,
2013-08-18 00:52:00,72.0,40.0,-100.00,SSW,208,7.0,10.0,31,0.00,,,0.00,1.000000,,2013-08-18 07:52:00,
2013-08-18 01:21:00,72.0,37.0,-100.00,NW,304,3.0,8.0,28,0.00,,,0.00,1.000000,,2013-08-18 08:21:00,
2013-08-18 01:32:00,72.0,37.0,-100.00,NW,304,3.0,8.0,28,0.00,,,0.00,1.000000,,2013-08-18 08:32:00,
2013-08-18 01:42:00,72.0,37.0,-100.00,NW,304,3.0,8.0,28,0.00,,,0.00,1.000000,,2013-08-18 08:42:00,
2013-08-18 01:52:00,72.0,37.0,-100.00,NW,304,3.0,8.0,28,0.00,,,0.00,1.000000,,2013-08-18 08:52:00,
2013-08-18 02:43:00,74.0,37.0,-100.00,South,187,5.0,7.0,26,0.00,,,0.00,1.000000,,2013-08-18 09:43:00,
2013-08-18 02:53:00,74.0,37.0,-100.00,South,187,5.0,7.0,26,0.00,,,0.00,1.000000,,2013-08-18 09:53:00,
2013-08-18 03:42:00,74.0,28.0,-100.00,SSW,196,9.0,11.0,18,0.00,,,0.00,1.000000,,2013-08-18 10:42:00,
2013-08-18 03:52:00,74.0,28.0,-100.00,SSW,196,9.0,11.0,18,0.00,,,0.00,1.000000,,2013-08-18 10:52:00,
2013-08-18 04:42:00,74.0,26.0,-100.00,South,187,9.0,13.0,17,0.00,,,0.00,1.000000,,2013-08-18 11:42:00,
2013-08-18 04:52:00,74.0,26.0,-100.00,South,187,9.0,13.0,17,0.00,,,0.00,1.000000,,2013-08-18 11:52:00,
2013-08-18 05:41:00,72.0,38.0,-100.00,South,189,5.0,11.0,29,0.00,,,0.00,1.000000,,2013-08-18 12:41:00,
2013-08-18 05:52:00,72.0,38.0,-100.00,South,189,5.0,11.0,29,0.00,,,0.00,1.000000,,2013-08-18 12:52:00,
2013-08-18 06:42:00,72.0,25.0,-100.00,South,175,3.0,7.0,17,0.00,,,0.00,1.000000,,2013-08-18 13:42:00,
2013-08-18 06:52:00,72.0,25.0,-100.00,South,175,3.0,7.0,17,0.00,,,0.00,1.000000,,2013-08-18 13:52:00,
2013-08-18 07:21:00,74.0,41.0,-100.00,South,176,1.0,6.0,31,0.00,,,0.00,30.000000,,2013-08-18 14:21:00,
2013-08-18 07:32:00,74.0,41.0,-100.00,South,176,1.0,6.0,31,0.00,,,0.00,30.000000,,2013-08-18 14:32:00,
2013-08-18 07:42:00,74.0,41.0,-100.00,South,176,1.0,6.0,31,0.00,,,0.00,30.000000,,2013-08-18 14:42:00,
2013-08-18 07:53:00,74.0,41.0,-100.00,South,176,1.0,6.0,31,0.00,,,0.00,30.000000,,2013-08-18 14:53:00,
2013-08-18 08:43:00,79.0,37.0,-100.00,East,85,5.0,7.0,22,0.00,,,0.00,213.000000,,2013-08-18 15:43:00,
2013-08-18 08:53:00,79.0,37.0,-100.00,East,85,5.0,7.0,22,0.00,,,0.00,213.000000,,2013-08-18 15:53:00,
2013-08-18 09:42:00,82.0,36.0,-100.00,East,94,6.0,10.0,19,0.00,,,0.00,476.000000,,2013-08-18 16:42:00,
2013-08-18 09:52:00,82.0,36.0,-100.00,East,94,6.0,10.0,19,0.00,,,0.00,476.000000,,2013-08-18 16:52:00,
2013-08-18 10:42:00,84.0,39.0,-100.00,ENE,61,4.0,10.0,20,0.00,,,0.00,605.000000,,2013-08-18 17:42:00,
2013-08-18 10:52:00,84.0,39.0,-100.00,ENE,61,4.0,10.0,20,0.00,,,0.00,605.000000,,2013-08-18 17:52:00,
2013-08-18 11:42:00,87.0,37.0,-100.00,NE,51,5.0,12.0,17,0.00,,,0.00,540.000000,,2013-08-18 18:42:00,
2013-08-18 11:52:00,87.0,37.0,-100.00,NE,51,5.0,12.0,17,0.00,,,0.00,540.000000,,2013-08-18 18:52:00,
2013-08-18 12:22:00,88.0,38.0,-100.00,NNE,20,4.0,10.0,17,0.00,,,0.00,521.000000,,2013-08-18 19:22:00,
2013-08-18 12:31:00,88.0,38.0,-100.00,NNE,20,4.0,10.0,17,0.00,,,0.00,521.000000,,2013-08-18 19:31:00,
2013-08-18 12:41:00,88.0,38.0,-100.00,NNE,20,4.0,10.0,17,0.00,,,0.00,521.000000,,2013-08-18 19:41:00,
2013-08-18 12:52:00,88.0,38.0,-100.00,NNE,20,4.0,10.0,17,0.00,,,0.00,521.000000,,2013-08-18 19:52:00,
2013-08-18 13:42:00,93.0,43.0,-100.00,South,173,10.0,19.0,18,0.00,,,0.00,877.000000,,2013-08-18 20:42:00,
2013-08-18 13:52:00,93.0,43.0,-100.00,South,173,10.0,19.0,18,0.00,,,0.00,877.000000,,2013-08-18 20:52:00,
2013-08-18 14:42:00,90.0,46.0,-100.00,SSW,197,11.0,19.0,22,0.00,,,0.00,1124.000000,,2013-08-18 21:42:00,
2013-08-18 14:53:00,90.0,46.0,-100.00,SSW,197,11.0,19.0,22,0.00,,,0.00,1124.000000,,2013-08-18 21:53:00,
2013-08-18 15:42:00,91.0,47.0,-100.00,South,182,17.0,25.0,22,0.00,,,0.00,1035.000000,,2013-08-18 22:42:00,
2013-08-18 15:52:00,91.0,47.0,-100.00,South,182,17.0,25.0,22,0.00,,,0.00,1035.000000,,2013-08-18 22:52:00,
2013-08-18 16:42:00,88.0,42.0,-100.00,South,178,20.0,31.0,20,0.00,,,0.00,880.000000,,2013-08-18 23:42:00,
2013-08-18 16:52:00,88.0,42.0,-100.00,South,178,20.0,31.0,20,0.00,,,0.00,880.000000,,2013-08-18 23:52:00,
2013-08-18 17:21:00,87.0,44.0,-100.00,South,181,15.0,27.0,22,0.00,,,0.00,690.000000,,2013-08-19 00:21:00,
2013-08-18 17:32:00,87.0,44.0,-100.00,South,181,15.0,27.0,22,0.00,,,0.00,690.000000,,2013-08-19 00:32:00,
2013-08-18 17:42:00,87.0,44.0,-100.00,South,181,15.0,27.0,22,0.00,,,0.00,690.000000,,2013-08-19 00:42:00,
2013-08-18 17:52:00,87.0,44.0,-100.00,South,181,15.0,27.0,22,0.00,,,0.00,690.000000,,2013-08-19 00:52:00,
2013-08-18 18:42:00,85.0,46.0,-100.00,SSE,159,9.0,24.0,26,0.00,,,0.00,491.000000,,2013-08-19 01:42:00,
2013-08-18 18:52:00,85.0,46.0,-100.00,SSE,159,9.0,24.0,26,0.00,,,0.00,491.000000,,2013-08-19 01:52:00,
2013-08-18 19:42:00,79.0,44.0,-100.00,South,173,4.0,11.0,29,0.00,,,0.00,137.000000,,2013-08-19 02:42:00,
2013-08-18 19:52:00,79.0,44.0,-100.00,South,173,4.0,11.0,29,0.00,,,0.00,137.000000,,2013-08-19 02:52:00,
2013-08-18 20:42:00,76.0,44.0,-100.00,SW,220,3.0,5.0,32,0.00,,,-99.99,30.000000,,2013-08-19 03:42:00,
2013-08-18 20:53:00,76.0,44.0,-100.00,SW,220,3.0,5.0,32,0.00,,,-99.99,30.000000,,2013-08-19 03:53:00,
2013-08-18 21:42:00,77.0,44.0,-100.00,South,179,4.0,5.0,31,0.00,,,0.00,1.000000,,2013-08-19 04:42:00,
2013-08-18 21:53:00,77.0,44.0,-100.00,South,179,4.0,5.0,31,0.00,,,0.00,1.000000,,2013-08-19 04:53:00,
2013-08-18 22:42:00,77.0,45.0,-100.00,North,3,4.0,9.0,32,0.00,,,0.00,1.000000,,2013-08-19 05:42:00,
2013-08-18 22:52:00,77.0,45.0,-100.00,North,3,4.0,9.0,32,0.00,,,0.00,1.000000,,2013-08-19 05:52:00,
2013-08-18 23:42:00,72.0,54.0,-100.00,North,354,9.0,17.0,53,0.00,,,0.00,1.000000,,2013-08-19 06:42:00,
2013-08-18 23:51:00,72.0,54.0,-100.00,North,354,9.0,17.0,53,0.00,,,0.00,1.000000,,2013-08-19 06:51:00,